Precipitable_Water
0.66 0.64 0.62 0.60 0.57 0.53 0.51 0.49 0.47 0.44 0.41 0.29 0.21 0.30 0.12 0.11 0.09 0.22 0.22 0.23 0.20 0.17 0.10 0.13 0.09 0.08 0.10 0.17 0.16 0.16 0.15 0.12 0.15 0.14 0.17 0.14 0.17 0.15 0.15 0.14 0.12 0.16 0.13 0.12 0.11 0.14 0.10 0.13 0.12 0.13 0.13 0.14 0.16 0.18 0.20 0.23 0.21 0.20 0.18 0.20 0.22 0.20 0.14 0.12 0.12 0.14 0.15 0.17 0.19 0.19 0.21 0.21 0.19 0.20 0.21 0.20 0.19 0.20 0.19 0.19 0.21 0.19 0.20 0.19 0.19 0.17 0.20
0.64 0.61 0.60 0.57 0.55 0.52 0.49 0.47 0.44 0.43 0.39 0.26 0.23 0.16 0.11 0.14 0.14 0.14 0.22 0.25 0.17 0.10 0.05 0.06 0.07 0.10 0.13 0.14 0.13 0.18 0.15 0.15 0.14 0.14 0.16 0.14 0.13 0.13 0.14 0.17 0.17 0.13 0.16 0.14 0.12 0.15 0.09 0.16 0.13 0.12 0.14 0.13 0.22 0.21 0.22 0.24 0.20 0.19 0.18 0.16 0.21 0.13 0.16 0.13 0.09 0.08 0.09 0.13 0.16 0.18 0.22 0.21 0.19 0.19 0.22 0.24 0.24 0.24 0.25 0.24 0.25 0.20 0.21 0.21 0.19 0.15 0.18
0.61 0.60 0.58 0.54 0.50 0.47 0.45 0.43 0.41 0.36 0.31 0.29 0.23 0.11 0.14 0.13 0.22 0.16 0.18 0.19 0.14 0.08 0.11 0.09 0.08 0.10 0.10 0.11 0.09 0.11 0.16 0.17 0.17 0.16 0.15 0.17 0.16 0.15 0.15 0.16 0.16 0.15 0.17 0.15 0.16 0.17 0.14 0.11 0.15 0.15 0.16 0.16 0.23 0.23 0.23 0.24 0.21 0.24 0.23 0.22 0.24 0.14 0.13 0.11 0.08 0.07 0.07 0.08 0.10 0.12 0.15 0.18 0.21 0.24 0.24 0.25 0.25 0.24 0.23 0.20 0.21 0.18 0.20 0.20 0.16 0.14 0.19
0.58 0.55 0.51 0.48 0.45 0.43 0.40 0.37 0.32 0.29 0.29 0.28 0.23 0.18 0.12 0.10 0.07 0.09 0.14 0.18 0.16 0.16 0.19 0.13 0.12 0.11 0.10 0.11 0.11 0.14 0.13 0.18 0.18 0.19 0.17 0.18 0.18 0.18 0.17 0.18 0.20 0.16 0.16 0.14 0.14 0.15 0.19 0.16 0.15 0.16 0.16 0.17 0.21 0.21 0.23 0.22 0.21 0.22 0.23 0.21 0.19 0.14 0.15 0.15 0.15 0.14 0.14 0.15 0.17 0.22 0.23 0.21 0.20 0.23 0.24 0.25 0.26 0.26 0.24 0.23 0.19 0.15 0.16 0.13 0.14 0.15 0.13
0.52 0.48 0.45 0.43 0.41 0.37 0.32 0.29 0.28 0.28 0.28 0.29 0.24 0.24 0.14 0.19 0.08 0.10 0.09 0.15 0.14 0.14 0.14 0.14 0.14 0.11 0.14 0.10 0.12 0.11 0.13 0.15 0.17 0.22 0.14 0.19 0.17 0.18 0.18 0.17 0.14 0.14 0.14 0.13 0.13 0.17 0.16 0.18 0.17 0.17 0.16 0.17 0.18 0.22 0.22 0.22 0.21 0.21 0.19 0.21 0.19 0.17 0.16 0.18 0.19 0.19 0.20 0.21 0.21 0.23 0.24 0.22 0.24 0.23 0.24 0.25 0.24 0.24 0.21 0.16 0.13 0.16 0.13 0.09 0.16 0.14 0.12
0.44 0.43 0.41 0.37 0.32 0.29 0.28 0.28 0.28 0.29 0.30 0.31 0.31 0.17 0.18 0.11 0.15 0.19 0.15 0.13 0.10 0.11 0.11 0.14 0.15 0.16 0.17 0.12 0.16 0.13 0.14 0.14 0.12 0.19 0.20 0.21 0.21 0.14 0.18 0.16 0.17 0.16 0.15 0.15 0.13 0.14 0.14 0.16 0.14 0.16 0.16 0.15 0.16 0.16 0.20 0.18 0.20 0.21 0.20 0.24 0.21 0.19 0.17 0.21 0.20 0.20 0.22 0.22 0.24 0.26 0.25 0.24 0.24 0.23 0.21 0.19 0.20 0.18 0.15 0.14 0.14 0.14 0.11 0.10 0.12 0.14 0.13
0.41 0.38 0.32 0.29 0.28 0.29 0.30 0.31 0.31 0.32 0.32 0.35 0.30 0.16 0.22 0.18 0.19 0.18 0.21 0.14 0.15 0.13 0.14 0.17 0.17 0.16 0.15 0.15 0.14 0.13 0.14 0.13 0.15 0.15 0.15 0.18 0.16 0.16 0.11 0.15 0.17 0.17 0.18 0.16 0.13 0.14 0.11 0.11 0.15 0.14 0.13 0.14 0.13 0.12 0.16 0.21 0.24 0.24 0.23 0.24 0.24 0.20 0.18 0.21 0.22 0.21 0.22 0.24 0.25 0.26 0.24 0.23 0.22 0.19 0.17 0.18 0.17 0.15 0.15 0.14 0.15 0.14 0.14 0.15 0.15 0.15 0.15
0.32 0.29 0.29 0.30 0.31 0.32 0.33 0.34 0.34 0.34 0.36 0.37 0.26 0.20 0.18 0.15 0.16 0.15 0.18 0.19 0.17 0.15 0.15 0.16 0.17 0.14 0.15 0.13 0.14 0.15 0.15 0.14 0.14 0.19 0.16 0.12 0.15 0.19 0.15 0.16 0.17 0.17 0.18 0.18 0.14 0.16 0.16 0.14 0.12 0.15 0.14 0.14 0.15 0.15 0.17 0.18 0.24 0.25 0.22 0.23 0.24 0.20 0.18 0.24 0.23 0.22 0.22 0.24 0.25 0.24 0.22 0.19 0.16 0.16 0.16 0.16 0.16 0.15 0.15 0.15 0.16 0.16 0.15 0.15 0.15 0.15 0.14
0.30 0.30 0.32 0.33 0.35 0.36 0.36 0.36 0.35 0.34 0.38 0.31 0.22 0.23 0.22 0.21 0.22 0.22 0.16 0.14 0.17 0.16 0.16 0.15 0.16 0.14 0.14 0.13 0.15 0.16 0.16 0.14 0.16 0.17 0.20 0.15 0.14 0.17 0.15 0.17 0.17 0.19 0.19 0.18 0.18 0.21 0.19 0.18 0.17 0.19 0.18 0.15 0.20 0.18 0.19 0.24 0.20 0.22 0.22 0.23 0.24 0.24 0.22 0.25 0.24 0.20 0.20 0.22 0.21 0.19 0.18 0.17 0.15 0.14 0.15 0.14 0.14 0.14 0.15 0.14 0.16 0.15 0.14 0.15 0.14 0.12 0.12
0.32 0.34 0.36 0.38 0.38 0.38 0.37 0.36 0.35 0.34 0.37 0.26 0.25 0.19 0.26 0.26 0.25 0.25 0.20 0.15 0.18 0.14 0.16 0.17 0.16 0.12 0.15 0.16 0.15 0.15 0.15 0.18 0.18 0.14 0.20 0.20 0.21 0.20 0.19 0.19 0.18 0.17 0.18 0.17 0.19 0.20 0.21 0.21 0.22 0.23 0.24 0.26 0.26 0.26 0.25 0.25 0.22 0.22 0.24 0.27 0.25 0.25 0.24 0.22 0.22 0.18 0.17 0.18 0.18 0.16 0.14 0.14 0.12 0.13 0.13 0.14 0.15 0.16 0.17 0.18 0.19 0.17 0.17 0.13 0.11 0.11 0.14
0.37 0.38 0.39 0.38 0.37 0.36 0.35 0.34 0.34 0.34 0.33 0.24 0.23 0.21 0.24 0.21 0.19 0.23 0.22 0.16 0.17 0.16 0.16 0.15 0.14 0.15 0.19 0.18 0.16 0.20 0.17 0.18 0.18 0.13 0.14 0.23 0.22 0.24 0.22 0.19 0.16 0.16 0.17 0.21 0.26 0.26 0.25 0.25 0.26 0.27 0.26 0.25 0.25 0.26 0.27 0.27 0.28 0.28 0.26 0.26 0.26 0.26 0.24 0.21 0.23 0.15 0.13 0.15 0.14 0.14 0.11 0.08 0.09 0.14 0.17 0.17 0.16 0.17 0.15 0.15 0.16 0.17 0.16 0.14 0.15 0.15 0.15
0.38 0.38 0.37 0.35 0.34 0.34 0.33 0.33 0.33 0.34 0.34 0.33 0.33 0.25 0.25 0.25 0.27 0.23 0.19 0.14 0.16 0.18 0.16 0.14 0.15 0.16 0.15 0.17 0.17 0.16 0.15 0.16 0.16 0.19 0.16 0.19 0.21 0.24 0.22 0.22 0.20 0.16 0.24 0.30 0.28 0.28 0.27 0.27 0.27 0.27 0.27 0.27 0.28 0.29 0.29 0.28 0.29 0.30 0.29 0.26 0.24 0.23 0.23 0.20 0.19 0.14 0.11 0.14 0.12 0.09 0.07 0.09 0.14 0.18 0.19 0.20 0.20 0.19 0.17 0.17 0.17 0.16 0.16 0.15 0.15 0.15 0.15
0.36 0.35 0.34 0.33 0.34 0.34 0.34 0.34 0.35 0.35 0.38 0.37 0.34 0.23 0.28 0.32 0.25 0.21 0.20 0.18 0.16 0.16 0.15 0.16 0.18 0.17 0.18 0.18 0.17 0.18 0.19 0.20 0.20 0.20 0.21 0.19 0.20 0.22 0.23 0.20 0.20 0.24 0.31 0.27 0.27 0.25 0.20 0.19 0.21 0.23 0.25 0.29 0.30 0.30 0.28 0.28 0.27 0.29 0.28 0.27 0.24 0.20 0.19 0.17 0.14 0.15 0.14 0.11 0.09 0.06 0.07 0.13 0.16 0.18 0.20 0.21 0.21 0.19 0.17 0.14 0.15 0.15 0.15 0.15 0.14 0.14 0.14
0.34 0.34 0.35 0.35 0.36 0.36 0.36 0.37 0.37 0.38 0.38 0.37 0.30 0.29 0.30 0.30 0.25 0.26 0.20 0.17 0.16 0.17 0.17 0.18 0.17 0.16 0.17 0.17 0.17 0.19 0.21 0.20 0.20 0.21 0.18 0.22 0.19 0.20 0.24 0.26 0.27 0.31 0.29 0.28 0.23 0.22 0.18 0.22 0.19 0.21 0.23 0.25 0.26 0.23 0.25 0.26 0.26 0.25 0.25 0.25 0.25 0.21 0.18 0.16 0.12 0.16 0.09 0.10 0.09 0.09 0.13 0.14 0.16 0.16 0.18 0.18 0.15 0.15 0.14 0.10 0.11 0.15 0.15 0.15 0.14 0.14 0.13
0.35 0.36 0.37 0.37 0.38 0.38 0.38 0.38 0.38 0.38 0.39 0.39 0.33 0.30 0.30 0.30 0.28 0.24 0.26 0.20 0.15 0.17 0.17 0.13 0.15 0.16 0.18 0.18 0.19 0.17 0.18 0.19 0.18 0.18 0.22 0.24 0.20 0.24 0.24 0.28 0.31 0.29 0.29 0.23 0.20 0.22 0.20 0.21 0.19 0.18 0.20 0.19 0.16 0.17 0.24 0.21 0.25 0.26 0.25 0.24 0.23 0.21 0.15 0.15 0.12 0.11 0.12 0.09 0.08 0.09 0.10 0.09 0.12 0.16 0.19 0.20 0.20 0.18 0.16 0.13 0.10 0.15 0.16 0.16 0.14 0.11 0.11
0.36 0.36 0.36 0.37 0.37 0.37 0.36 0.35 0.35 0.35 0.37 0.39 0.33 0.28 0.29 0.31 0.31 0.30 0.23 0.18 0.16 0.13 0.18 0.20 0.21 0.19 0.18 0.20 0.21 0.17 0.17 0.17 0.17 0.18 0.18 0.20 0.22 0.25 0.28 0.29 0.31 0.30 0.28 0.25 0.24 0.22 0.22 0.20 0.18 0.17 0.16 0.17 0.19 0.18 0.17 0.21 0.19 0.23 0.24 0.22 0.19 0.18 0.17 0.15 0.12 0.10 0.10 0.10 0.09 0.09 0.08 0.09 0.14 0.16 0.17 0.18 0.19 0.16 0.14 0.11 0.07 0.15 0.15 0.13 0.12 0.11 0.10
0.34 0.34 0.34 0.34 0.33 0.33 0.32 0.32 0.32 0.33 0.33 0.34 0.30 0.27 0.25 0.32 0.28 0.25 0.24 0.23 0.17 0.15 0.23 0.24 0.24 0.23 0.22 0.19 0.22 0.19 0.19 0.18 0.19 0.15 0.15 0.17 0.20 0.23 0.26 0.30 0.32 0.31 0.28 0.24 0.25 0.23 0.22 0.20 0.19 0.18 0.19 0.19 0.17 0.16 0.18 0.17 0.16 0.16 0.18 0.18 0.16 0.13 0.13 0.13 0.10 0.10 0.11 0.11 0.09 0.08 0.10 0.10 0.14 0.16 0.16 0.17 0.16 0.15 0.11 0.06 0.06 0.13 0.14 0.13 0.12 0.11 0.10
0.32 0.32 0.31 0.31 0.30 0.30 0.30 0.30 0.30 0.30 0.31 0.33 0.30 0.25 0.26 0.33 0.33 0.31 0.27 0.21 0.17 0.18 0.23 0.25 0.23 0.21 0.18 0.18 0.18 0.22 0.23 0.21 0.20 0.22 0.19 0.20 0.23 0.22 0.24 0.28 0.24 0.32 0.32 0.23 0.24 0.22 0.20 0.18 0.16 0.16 0.16 0.20 0.20 0.19 0.14 0.16 0.14 0.13 0.13 0.13 0.11 0.11 0.12 0.12 0.10 0.11 0.11 0.11 0.09 0.09 0.11 0.15 0.17 0.16 0.15 0.16 0.15 0.12 0.07 0.05 0.09 0.12 0.13 0.13 0.12 0.10 0.09
0.31 0.30 0.30 0.30 0.29 0.30 0.30 0.29 0.29 0.28 0.30 0.31 0.31 0.30 0.26 0.31 0.33 0.33 0.25 0.21 0.20 0.16 0.23 0.28 0.28 0.24 0.25 0.29 0.25 0.25 0.25 0.23 0.22 0.19 0.19 0.19 0.22 0.26 0.28 0.29 0.29 0.23 0.28 0.24 0.23 0.20 0.18 0.18 0.20 0.19 0.16 0.17 0.19 0.15 0.17 0.14 0.13 0.15 0.15 0.11 0.10 0.10 0.12 0.12 0.12 0.11 0.10 0.11 0.08 0.08 0.10 0.15 0.16 0.16 0.16 0.16 0.11 0.06 0.06 0.11 0.14 0.13 0.12 0.12 0.11 0.09 0.09
0.30 0.29 0.29 0.29 0.29 0.29 0.29 0.29 0.29 0.29 0.30 0.32 0.28 0.22 0.25 0.30 0.32 0.31 0.23 0.18 0.20 0.19 0.23 0.24 0.25 0.22 0.27 0.24 0.22 0.21 0.25 0.26 0.25 0.23 0.21 0.19 0.27 0.28 0.27 0.22 0.28 0.28 0.25 0.25 0.19 0.20 0.18 0.16 0.17 0.19 0.17 0.16 0.17 0.18 0.15 0.15 0.16 0.14 0.13 0.13 0.11 0.11 0.11 0.10 0.11 0.12 0.12 0.10 0.08 0.07 0.05 0.11 0.16 0.15 0.14 0.15 0.09 0.10 0.12 0.13 0.13 0.13 0.11 0.09 0.09 0.09 0.09
0.28 0.28 0.28 0.28 0.28 0.29 0.28 0.29 0.30 0.30 0.31 0.33 0.33 0.25 0.23 0.29 0.32 0.33 0.32 0.24 0.21 0.18 0.20 0.30 0.30 0.28 0.29 0.28 0.29 0.29 0.27 0.24 0.25 0.23 0.25 0.26 0.30 0.27 0.19 0.19 0.23 0.25 0.20 0.20 0.16 0.17 0.19 0.17 0.18 0.17 0.18 0.17 0.17 0.17 0.13 0.13 0.14 0.16 0.15 0.13 0.12 0.15 0.11 0.11 0.12 0.14 0.09 0.08 0.07 0.06 0.10 0.15 0.17 0.15 0.10 0.12 0.13 0.14 0.13 0.12 0.09 0.10 0.10 0.10 0.10 0.09 0.09
0.26 0.26 0.26 0.26 0.27 0.28 0.28 0.29 0.30 0.30 0.32 0.34 0.33 0.26 0.23 0.27 0.30 0.31 0.31 0.29 0.23 0.21 0.24 0.31 0.33 0.32 0.34 0.36 0.36 0.37 0.35 0.34 0.35 0.35 0.29 0.26 0.31 0.28 0.27 0.28 0.26 0.24 0.24 0.25 0.21 0.21 0.22 0.20 0.21 0.18 0.16 0.17 0.19 0.14 0.15 0.12 0.10 0.14 0.17 0.15 0.10 0.16 0.13 0.14 0.11 0.13 0.11 0.09 0.09 0.13 0.15 0.16 0.17 0.16 0.14 0.14 0.15 0.14 0.12 0.11 0.10 0.10 0.10 0.11 0.10 0.09 0.09
0.25 0.25 0.25 0.26 0.26 0.27 0.27 0.28 0.29 0.30 0.31 0.33 0.32 0.26 0.23 0.27 0.30 0.34 0.31 0.25 0.30 0.32 0.35 0.34 0.35 0.36 0.39 0.39 0.41 0.42 0.41 0.42 0.41 0.38 0.36 0.30 0.27 0.29 0.26 0.24 0.23 0.29 0.28 0.27 0.21 0.20 0.21 0.20 0.17 0.19 0.17 0.17 0.15 0.13 0.14 0.14 0.12 0.14 0.12 0.16 0.15 0.18 0.17 0.16 0.14 0.12 0.14 0.13 0.14 0.16 0.15 0.15 0.15 0.16 0.15 0.14 0.13 0.12 0.11 0.10 0.10 0.10 0.11 0.11 0.10 0.09 0.08
0.26 0.26 0.26 0.26 0.26 0.26 0.27 0.27 0.28 0.29 0.31 0.32 0.30 0.26 0.26 0.29 0.31 0.33 0.30 0.29 0.25 0.24 0.29 0.33 0.31 0.26 0.29 0.30 0.36 0.41 0.41 0.40 0.39 0.40 0.41 0.37 0.25 0.23 0.28 0.27 0.30 0.29 0.26 0.26 0.27 0.21 0.21 0.21 0.19 0.20 0.15 0.17 0.18 0.13 0.11 0.11 0.13 0.15 0.13 0.13 0.15 0.17 0.16 0.13 0.10 0.11 0.09 0.08 0.13 0.12 0.13 0.14 0.14 0.15 0.15 0.14 0.12 0.11 0.11 0.10 0.11 0.11 0.11 0.10 0.09 0.08 0.08
0.26 0.26 0.26 0.27 0.27 0.27 0.27 0.27 0.28 0.28 0.30 0.31 0.31 0.32 0.31 0.30 0.32 0.33 0.30 0.23 0.25 0.25 0.21 0.25 0.28 0.33 0.38 0.40 0.42 0.39 0.40 0.41 0.43 0.40 0.37 0.35 0.30 0.24 0.22 0.27 0.32 0.25 0.23 0.26 0.27 0.25 0.24 0.19 0.19 0.17 0.14 0.18 0.18 0.12 0.17 0.14 0.13 0.17 0.13 0.13 0.13 0.12 0.15 0.10 0.11 0.10 0.09 0.09 0.12 0.14 0.15 0.14 0.15 0.14 0.12 0.10 0.11 0.11 0.11 0.12 0.12 0.11 0.10 0.09 0.09 0.08 0.08
0.27 0.26 0.26 0.26 0.27 0.27 0.27 0.28 0.29 0.30 0.31 0.32 0.34 0.30 0.29 0.28 0.34 0.36 0.35 0.33 0.31 0.28 0.22 0.22 0.26 0.38 0.38 0.36 0.33 0.36 0.41 0.40 0.39 0.36 0.34 0.33 0.33 0.32 0.30 0.31 0.30 0.33 0.30 0.28 0.25 0.22 0.20 0.19 0.18 0.17 0.15 0.14 0.20 0.15 0.15 0.16 0.15 0.17 0.14 0.13 0.14 0.13 0.14 0.09 0.11 0.09 0.10 0.12 0.13 0.14 0.14 0.13 0.13 0.12 0.12 0.11 0.11 0.11 0.11 0.11 0.11 0.10 0.09 0.08 0.08 0.08 0.08
0.27 0.27 0.27 0.27 0.27 0.27 0.28 0.29 0.30 0.32 0.33 0.33 0.31 0.31 0.30 0.31 0.34 0.32 0.28 0.29 0.26 0.23 0.24 0.22 0.26 0.31 0.35 0.31 0.36 0.39 0.38 0.36 0.35 0.33 0.33 0.34 0.33 0.34 0.32 0.29 0.26 0.26 0.26 0.24 0.24 0.22 0.21 0.18 0.17 0.14 0.17 0.15 0.18 0.17 0.17 0.16 0.16 0.14 0.13 0.14 0.14 0.11 0.09 0.12 0.11 0.08 0.08 0.09 0.11 0.13 0.09 0.09 0.10 0.11 0.11 0.10 0.11 0.11 0.11 0.10 0.09 0.09 0.08 0.08 0.07 0.07 0.07
0.28 0.28 0.28 0.28 0.28 0.29 0.30 0.30 0.31 0.32 0.33 0.32 0.31 0.32 0.33 0.32 0.35 0.37 0.37 0.36 0.28 0.22 0.22 0.23 0.24 0.29 0.37 0.31 0.35 0.35 0.34 0.34 0.33 0.32 0.32 0.32 0.33 0.32 0.30 0.28 0.27 0.24 0.23 0.22 0.18 0.19 0.17 0.15 0.14 0.18 0.19 0.19 0.17 0.15 0.18 0.18 0.17 0.14 0.13 0.11 0.13 0.10 0.11 0.11 0.09 0.09 0.08 0.11 0.13 0.14 0.13 0.12 0.11 0.10 0.10 0.11 0.12 0.11 0.10 0.09 0.09 0.09 0.08 0.08 0.07 0.07 0.06
0.29 0.28 0.28 0.28 0.29 0.31 0.32 0.32 0.32 0.32 0.34 0.35 0.35 0.34 0.33 0.35 0.37 0.37 0.37 0.38 0.35 0.28 0.26 0.27 0.30 0.27 0.21 0.25 0.35 0.30 0.32 0.32 0.32 0.31 0.31 0.30 0.30 0.30 0.28 0.27 0.25 0.24 0.23 0.22 0.21 0.20 0.18 0.17 0.20 0.18 0.17 0.21 0.18 0.15 0.16 0.12 0.12 0.10 0.11 0.13 0.13 0.13 0.14 0.13 0.13 0.13 0.13 0.14 0.14 0.13 0.12 0.10 0.10 0.10 0.10 0.11 0.12 0.11 0.10 0.09 0.09 0.08 0.08 0.07 0.07 0.07 0.06
0.30 0.29 0.29 0.29 0.31 0.32 0.33 0.34 0.34 0.35 0.34 0.33 0.33 0.29 0.26 0.27 0.35 0.35 0.37 0.37 0.35 0.31 0.24 0.22 0.20 0.21 0.30 0.29 0.25 0.28 0.28 0.31 0.30 0.30 0.28 0.28 0.28 0.27 0.27 0.26 0.25 0.26 0.24 0.21 0.20 0.17 0.18 0.18 0.19 0.22 0.23 0.25 0.17 0.16 0.13 0.13 0.11 0.10 0.13 0.14 0.13 0.14 0.14 0.14 0.15 0.13 0.12 0.14 0.14 0.12 0.11 0.10 0.10 0.10 0.11 0.11 0.11 0.10 0.09 0.09 0.08 0.08 0.07 0.07 0.07 0.06 0.06
0.30 0.29 0.29 0.31 0.33 0.33 0.34 0.34 0.36 0.36 0.34 0.32 0.32 0.24 0.22 0.21 0.27 0.37 0.36 0.37 0.39 0.32 0.26 0.24 0.20 0.24 0.23 0.27 0.26 0.25 0.26 0.27 0.27 0.27 0.27 0.27 0.27 0.27 0.28 0.27 0.25 0.25 0.21 0.22 0.21 0.20 0.20 0.17 0.19 0.19 0.22 0.21 0.18 0.15 0.13 0.11 0.09 0.10 0.13 0.13 0.13 0.13 0.13 0.14 0.15 0.15 0.15 0.14 0.13 0.12 0.10 0.09 0.10 0.10 0.11 0.11 0.11 0.10 0.09 0.08 0.08 0.08 0.08 0.07 0.07 0.06 0.06
0.29 0.28 0.28 0.31 0.32 0.33 0.34 0.34 0.33 0.33 0.33 0.30 0.27 0.25 0.25 0.27 0.32 0.37 0.37 0.36 0.36 0.28 0.22 0.19 0.18 0.20 0.19 0.21 0.24 0.28 0.28 0.28 0.27 0.27 0.26 0.27 0.24 0.26 0.25 0.25 0.23 0.25 0.23 0.20 0.21 0.20 0.19 0.20 0.19 0.19 0.18 0.19 0.18 0.14 0.13 0.10 0.08 0.09 0.13 0.13 0.14 0.14 0.15 0.14 0.14 0.15 0.15 0.14 0.12 0.09 0.09 0.09 0.10 0.10 0.09 0.11 0.10 0.09 0.08 0.08 0.08 0.08 0.07 0.07 0.07 0.07 0.07
0.29 0.28 0.28 0.29 0.31 0.31 0.32 0.34 0.35 0.33 0.31 0.33 0.35 0.36 0.37 0.37 0.37 0.36 0.35 0.36 0.32 0.24 0.25 0.18 0.15 0.18 0.18 0.18 0.26 0.25 0.27 0.27 0.24 0.25 0.22 0.26 0.23 0.25 0.22 0.25 0.23 0.23 0.25 0.21 0.18 0.17 0.21 0.20 0.20 0.17 0.19 0.21 0.16 0.14 0.12 0.09 0.10 0.13 0.13 0.14 0.14 0.14 0.14 0.15 0.15 0.15 0.14 0.13 0.11 0.09 0.08 0.08 0.09 0.11 0.11 0.10 0.09 0.08 0.08 0.08 0.08 0.07 0.07 0.06 0.06 0.06 0.06
0.29 0.28 0.28 0.28 0.29 0.30 0.31 0.33 0.36 0.37 0.37 0.31 0.26 0.27 0.32 0.35 0.34 0.34 0.35 0.33 0.23 0.22 0.21 0.17 0.15 0.15 0.16 0.25 0.20 0.22 0.27 0.21 0.20 0.23 0.19 0.23 0.25 0.24 0.22 0.23 0.23 0.20 0.22 0.20 0.21 0.21 0.21 0.20 0.17 0.17 0.19 0.16 0.17 0.13 0.09 0.11 0.13 0.13 0.14 0.14 0.15 0.15 0.15 0.15 0.15 0.14 0.14 0.12 0.11 0.10 0.10 0.11 0.11 0.11 0.10 0.09 0.09 0.08 0.08 0.08 0.07 0.07 0.06 0.06 0.06 0.06 0.06
0.29 0.28 0.27 0.28 0.28 0.31 0.32 0.33 0.32 0.30 0.27 0.28 0.28 0.31 0.33 0.33 0.32 0.32 0.30 0.27 0.20 0.17 0.17 0.18 0.18 0.14 0.14 0.17 0.17 0.20 0.26 0.23 0.19 0.21 0.18 0.21 0.25 0.21 0.22 0.19 0.20 0.17 0.18 0.25 0.20 0.19 0.18 0.17 0.19 0.16 0.13 0.17 0.13 0.10 0.10 0.12 0.13 0.14 0.14 0.14 0.15 0.15 0.14 0.13 0.14 0.15 0.13 0.11 0.10 0.10 0.11 0.11 0.10 0.09 0.09 0.09 0.08 0.08 0.08 0.07 0.07 0.06 0.06 0.06 0.06 0.06 0.06
0.29 0.27 0.28 0.28 0.29 0.29 0.30 0.29 0.28 0.28 0.26 0.26 0.27 0.34 0.35 0.34 0.32 0.30 0.28 0.25 0.22 0.18 0.17 0.18 0.18 0.15 0.16 0.14 0.14 0.19 0.26 0.22 0.22 0.22 0.21 0.22 0.21 0.23 0.22 0.20 0.16 0.19 0.23 0.20 0.17 0.19 0.17 0.19 0.17 0.12 0.16 0.12 0.10 0.11 0.12 0.13 0.13 0.13 0.14 0.14 0.15 0.15 0.14 0.14 0.14 0.14 0.12 0.11 0.10 0.10 0.11 0.10 0.09 0.09 0.09 0.08 0.08 0.08 0.08 0.07 0.07 0.06 0.06 0.06 0.06 0.06 0.06
0.28 0.27 0.28 0.29 0.29 0.27 0.22 0.23 0.28 0.27 0.27 0.31 0.33 0.35 0.35 0.35 0.35 0.31 0.25 0.23 0.25 0.25 0.20 0.18 0.16 0.17 0.17 0.17 0.20 0.21 0.22 0.15 0.21 0.19 0.20 0.17 0.17 0.21 0.19 0.18 0.15 0.19 0.19 0.17 0.17 0.15 0.17 0.22 0.16 0.12 0.12 0.10 0.11 0.14 0.15 0.14 0.14 0.14 0.14 0.15 0.16 0.16 0.15 0.15 0.15 0.14 0.11 0.10 0.10 0.10 0.10 0.10 0.09 0.09 0.09 0.08 0.08 0.08 0.07 0.06 0.06 0.06 0.05 0.05 0.06 0.06 0.06
0.28 0.28 0.27 0.23 0.23 0.19 0.19 0.22 0.24 0.29 0.34 0.32 0.33 0.30 0.29 0.28 0.23 0.24 0.22 0.21 0.24 0.25 0.23 0.22 0.17 0.19 0.21 0.19 0.15 0.22 0.21 0.17 0.22 0.15 0.17 0.19 0.17 0.16 0.20 0.17 0.16 0.18 0.12 0.14 0.16 0.19 0.17 0.16 0.14 0.12 0.12 0.15 0.15 0.15 0.15 0.15 0.15 0.16 0.16 0.17 0.16 0.16 0.16 0.16 0.15 0.13 0.10 0.09 0.09 0.09 0.09 0.09 0.09 0.09 0.08 0.08 0.07 0.07 0.07 0.07 0.07 0.06 0.06 0.06 0.06 0.06 0.06
0.27 0.25 0.24 0.24 0.21 0.18 0.19 0.23 0.32 0.33 0.31 0.33 0.33 0.25 0.21 0.21 0.21 0.19 0.20 0.22 0.21 0.20 0.23 0.20 0.17 0.20 0.18 0.17 0.18 0.26 0.20 0.17 0.15 0.16 0.13 0.18 0.15 0.12 0.17 0.12 0.16 0.17 0.12 0.13 0.15 0.18 0.11 0.12 0.13 0.12 0.10 0.13 0.13 0.14 0.16 0.16 0.16 0.17 0.17 0.17 0.16 0.16 0.16 0.16 0.15 0.12 0.10 0.09 0.10 0.10 0.09 0.09 0.08 0.08 0.08 0.08 0.08 0.08 0.07 0.07 0.06 0.06 0.06 0.06 0.06 0.06 0.06
0.25 0.20 0.20 0.20 0.19 0.21 0.27 0.31 0.32 0.30 0.29 0.24 0.26 0.22 0.17 0.20 0.17 0.17 0.23 0.18 0.18 0.21 0.21 0.17 0.20 0.20 0.20 0.17 0.17 0.17 0.25 0.18 0.13 0.12 0.14 0.16 0.20 0.13 0.16 0.15 0.15 0.14 0.10 0.11 0.12 0.16 0.11 0.09 0.11 0.10 0.09 0.12 0.13 0.16 0.16 0.16 0.16 0.17 0.17 0.17 0.17 0.17 0.16 0.16 0.15 0.13 0.11 0.11 0.11 0.11 0.10 0.10 0.09 0.09 0.08 0.08 0.07 0.07 0.07 0.07 0.06 0.06 0.06 0.06 0.06 0.06 0.06
0.22 0.22 0.22 0.19 0.22 0.25 0.26 0.30 0.31 0.30 0.25 0.21 0.21 0.18 0.17 0.16 0.20 0.21 0.20 0.18 0.18 0.18 0.23 0.19 0.20 0.18 0.21 0.21 0.20 0.16 0.22 0.23 0.20 0.20 0.18 0.13 0.19 0.18 0.14 0.11 0.15 0.12 0.11 0.10 0.14 0.14 0.12 0.10 0.10 0.08 0.09 0.13 0.14 0.16 0.16 0.16 0.17 0.17 0.17 0.17 0.17 0.17 0.17 0.16 0.14 0.12 0.12 0.11 0.11 0.10 0.10 0.10 0.09 0.08 0.08 0.08 0.08 0.07 0.07 0.07 0.06 0.06 0.06 0.06 0.06 0.06 0.06
0.24 0.23 0.25 0.28 0.28 0.28 0.29 0.28 0.25 0.24 0.22 0.21 0.16 0.14 0.16 0.17 0.20 0.19 0.21 0.17 0.17 0.19 0.19 0.19 0.16 0.17 0.17 0.20 0.19 0.20 0.19 0.23 0.20 0.18 0.15 0.11 0.15 0.13 0.12 0.13 0.14 0.10 0.09 0.12 0.14 0.12 0.11 0.08 0.08 0.08 0.11 0.14 0.16 0.16 0.16 0.16 0.17 0.16 0.16 0.17 0.17 0.17 0.17 0.15 0.13 0.12 0.12 0.11 0.11 0.10 0.10 0.09 0.08 0.08 0.08 0.08 0.08 0.07 0.07 0.06 0.06 0.06 0.06 0.06 0.06 0.06 0.06
0.28 0.28 0.27 0.23 0.24 0.22 0.25 0.20 0.21 0.20 0.14 0.14 0.13 0.13 0.15 0.15 0.18 0.17 0.19 0.24 0.25 0.20 0.19 0.24 0.21 0.23 0.24 0.24 0.19 0.22 0.18 0.22 0.16 0.14 0.13 0.11 0.15 0.16 0.11 0.11 0.10 0.08 0.10 0.14 0.12 0.10 0.08 0.08 0.07 0.09 0.13 0.14 0.16 0.16 0.16 0.17 0.16 0.16 0.16 0.17 0.17 0.17 0.16 0.14 0.12 0.12 0.12 0.11 0.10 0.10 0.09 0.09 0.08 0.08 0.08 0.08 0.07 0.07 0.07 0.07 0.06 0.06 0.06 0.06 0.06 0.06 0.06
0.26 0.25 0.21 0.21 0.20 0.19 0.21 0.14 0.19 0.18 0.14 0.15 0.13 0.12 0.14 0.15 0.17 0.19 0.18 0.19 0.20 0.19 0.20 0.17 0.18 0.17 0.15 0.21 0.17 0.17 0.17 0.18 0.19 0.15 0.13 0.14 0.13 0.10 0.10 0.09 0.09 0.12 0.15 0.11 0.10 0.08 0.08 0.09 0.10 0.11 0.14 0.15 0.16 0.16 0.16 0.16 0.15 0.16 0.17 0.17 0.17 0.17 0.16 0.14 0.12 0.12 0.11 0.11 0.11 0.10 0.09 0.08 0.08 0.08 0.08 0.08 0.07 0.07 0.06 0.06 0.06 0.06 0.06 0.06 0.06 0.06 0.06
0.20 0.19 0.19 0.18 0.16 0.17 0.17 0.13 0.19 0.15 0.12 0.13 0.16 0.15 0.15 0.15 0.17 0.20 0.19 0.22 0.21 0.18 0.21 0.21 0.19 0.17 0.16 0.19 0.19 0.20 0.17 0.12 0.18 0.12 0.09 0.12 0.10 0.11 0.09 0.08 0.11 0.12 0.09 0.08 0.08 0.08 0.09 0.08 0.11 0.13 0.14 0.14 0.16 0.16 0.16 0.15 0.16 0.16 0.17 0.17 0.17 0.16 0.15 0.13 0.12 0.11 0.11 0.10 0.10 0.09 0.09 0.08 0.08 0.08 0.07 0.07 0.07 0.07 0.07 0.06 0.06 0.06 0.06 0.06 0.06 0.06 0.06
0.18 0.16 0.16 0.14 0.12 0.16 0.15 0.13 0.15 0.13 0.16 0.16 0.15 0.17 0.17 0.20 0.21 0.21 0.24 0.25 0.21 0.21 0.19 0.19 0.18 0.18 0.16 0.19 0.15 0.13 0.15 0.13 0.11 0.10 0.11 0.12 0.09 0.08 0.10 0.14 0.13 0.08 0.08 0.08 0.07 0.06 0.07 0.09 0.11 0.13 0.15 0.15 0.16 0.15 0.15 0.15 0.17 0.17 0.17 0.16 0.16 0.15 0.14 0.13 0.12 0.11 0.11 0.10 0.10 0.09 0.09 0.08 0.08 0.08 0.07 0.07 0.07 0.07 0.07 0.06 0.06 0.06 0.06 0.06 0.05 0.05 0.05
0.19 0.20 0.19 0.17 0.14 0.16 0.18 0.13 0.13 0.15 0.16 0.17 0.18 0.20 0.20 0.22 0.24 0.24 0.25 0.24 0.21 0.21 0.21 0.20 0.19 0.18 0.16 0.15 0.15 0.15 0.15 0.13 0.10 0.11 0.12 0.09 0.08 0.10 0.13 0.09 0.07 0.08 0.07 0.07 0.07 0.07 0.08 0.11 0.13 0.14 0.15 0.16 0.15 0.15 0.15 0.16 0.17 0.17 0.17 0.17 0.16 0.15 0.13 0.12 0.12 0.11 0.10 0.10 0.09 0.09 0.08 0.08 0.08 0.08 0.07 0.07 0.07 0.07 0.07 0.06 0.06 0.06 0.06 0.06 0.06 0.06 0.05
0.15 0.19 0.20 0.12 0.12 0.15 0.13 0.15 0.19 0.18 0.19 0.18 0.20 0.22 0.23 0.25 0.24 0.22 0.24 0.24 0.23 0.22 0.19 0.19 0.16 0.17 0.16 0.19 0.17 0.13 0.13 0.12 0.10 0.10 0.11 0.09 0.11 0.09 0.08 0.08 0.07 0.08 0.09 0.08 0.07 0.09 0.10 0.12 0.14 0.15 0.15 0.15 0.15 0.14 0.15 0.16 0.17 0.17 0.17 0.16 0.15 0.14 0.13 0.12 0.12 0.11 0.10 0.10 0.09 0.09 0.08 0.08 0.08 0.08 0.07 0.07 0.07 0.07 0.07 0.06 0.06 0.06 0.06 0.06 0.05 0.05 0.05
0.19 0.17 0.14 0.14 0.16 0.17 0.16 0.18 0.18 0.15 0.17 0.19 0.21 0.22 0.23 0.23 0.22 0.23 0.23 0.24 0.22 0.20 0.21 0.18 0.17 0.17 0.14 0.15 0.13 0.12 0.10 0.11 0.09 0.08 0.10 0.09 0.07 0.07 0.07 0.07 0.07 0.07 0.09 0.09 0.09 0.10 0.12 0.14 0.15 0.15 0.15 0.14 0.15 0.15 0.16 0.17 0.17 0.17 0.17 0.16 0.15 0.14 0.13 0.12 0.11 0.11 0.10 0.10 0.09 0.09 0.08 0.08 0.08 0.08 0.07 0.07 0.07 0.06 0.07 0.06 0.06 0.06 0.06 0.05 0.05 0.05 0.05
0.17 0.16 0.18 0.17 0.16 0.17 0.18 0.19 0.18 0.15 0.18 0.19 0.21 0.21 0.23 0.23 0.22 0.23 0.24 0.22 0.22 0.21 0.21 0.20 0.21 0.16 0.14 0.13 0.10 0.11 0.10 0.11 0.10 0.10 0.09 0.07 0.08 0.08 0.08 0.07 0.08 0.08 0.08 0.10 0.11 0.12 0.14 0.15 0.15 0.14 0.14 0.14 0.15 0.15 0.16 0.17 0.17 0.17 0.17 0.16 0.15 0.14 0.13 0.12 0.11 0.11 0.10 0.10 0.09 0.08 0.08 0.08 0.08 0.07 0.07 0.07 0.07 0.07 0.06 0.06 0.06 0.06 0.05 0.05 0.05 0.05 0.05
0.20 0.17 0.16 0.19 0.15 0.14 0.16 0.13 0.13 0.14 0.16 0.18 0.20 0.21 0.23 0.22 0.22 0.22 0.24 0.23 0.22 0.20 0.19 0.15 0.15 0.13 0.12 0.11 0.10 0.08 0.08 0.12 0.10 0.08 0.08 0.08 0.09 0.09 0.08 0.07 0.08 0.09 0.11 0.13 0.14 0.14 0.14 0.14 0.14 0.14 0.14 0.14 0.15 0.16 0.17 0.17 0.17 0.17 0.16 0.15 0.15 0.14 0.13 0.12 0.11 0.10 0.10 0.09 0.09 0.08 0.08 0.08 0.08 0.08 0.08 0.07 0.07 0.06 0.06 0.06 0.06 0.06 0.05 0.05 0.05 0.05 0.05
0.16 0.14 0.14 0.17 0.19 0.19 0.18 0.18 0.18 0.18 0.19 0.21 0.22 0.23 0.24 0.22 0.23 0.23 0.25 0.23 0.21 0.18 0.15 0.17 0.15 0.12 0.11 0.09 0.10 0.11 0.13 0.11 0.09 0.09 0.07 0.09 0.10 0.09 0.09 0.09 0.10 0.12 0.12 0.13 0.13 0.14 0.14 0.14 0.14 0.14 0.15 0.15 0.15 0.16 0.17 0.17 0.17 0.17 0.16 0.15 0.14 0.14 0.13 0.12 0.11 0.10 0.10 0.09 0.09 0.08 0.08 0.08 0.08 0.08 0.08 0.07 0.07 0.06 0.06 0.05 0.05 0.06 0.05 0.05 0.05 0.05 0.05
Wind_Speed
11 11 12 12 13 13 13 13 14 15 15 14 12 11 9 8 7 8 10 11 9 7 7 9 9 8 9 9 9 10 10 11 12 12 12 12 13 13 14 14 14 15 15 16 16 17 17 16 16 16 17 17 18 19 19 20 19 18 19 19 19 18 17 18 19 19 18 18 16 15 14 15 17 19 19 18 18 18 17 18 19 19 20 20 18 18 17
10 11 11 12 12 13 13 13 14 14 14 13 11 9 8 8 8 8 10 11 9 6 7 9 10 9 9 10 10 11 11 11 11 12 13 13 13 14 15 15 15 16 16 16 17 17 17 16 17 17 17 17 18 18 19 19 18 18 18 18 18 17 16 17 18 18 17 16 15 16 18 18 19 19 19 18 18 19 19 19 19 18 19 18 18 18 17
10 10 11 12 13 13 13 13 13 13 13 12 10 9 8 8 8 8 10 10 8 7 7 8 8 9 10 10 11 11 11 11 12 12 13 14 14 15 16 16 16 17 17 17 18 17 16 17 17 16 17 17 17 17 18 17 17 17 16 16 16 16 15 15 15 15 16 16 17 18 20 20 20 19 20 19 19 19 19 18 17 17 18 19 19 20 22
10 11 12 12 13 13 13 13 13 12 12 12 10 9 8 8 8 8 10 10 8 8 9 9 9 9 10 10 11 11 12 13 13 13 15 15 15 16 16 17 17 17 17 17 17 17 16 16 16 15 16 16 16 16 17 16 16 16 16 16 15 15 15 15 14 14 16 17 18 19 20 20 20 20 20 20 19 19 17 16 16 17 19 21 20 22 26
11 12 12 12 12 12 12 12 12 11 12 11 10 9 8 7 7 8 9 9 9 9 10 10 10 9 9 10 11 12 13 14 15 15 15 16 16 16 17 17 17 16 16 16 15 15 15 14 14 14 15 15 15 16 16 16 15 15 15 16 15 15 16 16 15 16 17 18 20 20 19 19 18 18 19 19 19 18 16 16 17 18 20 21 22 25 28
11 11 12 12 12 11 11 11 12 11 12 11 10 9 9 8 7 8 8 9 9 10 11 11 11 11 10 10 12 13 14 15 15 15 16 16 16 16 16 16 15 14 13 13 13 15 15 14 14 14 15 16 16 16 16 16 15 15 16 16 14 14 16 16 16 18 19 20 20 18 16 17 17 17 17 17 18 18 17 17 18 19 20 23 26 28 30
11 11 11 11 11 11 11 11 12 12 12 11 9 8 9 8 8 8 9 9 9 10 11 11 11 12 12 12 13 14 14 15 16 16 16 16 16 15 14 14 15 14 13 12 13 14 15 15 15 15 15 16 16 16 16 15 15 16 16 16 15 15 16 17 17 19 20 19 18 16 14 15 16 17 17 17 17 18 18 19 21 22 23 26 28 30 30
10 10 10 10 11 11 11 12 12 12 12 10 9 9 9 8 8 9 9 10 10 10 11 11 11 12 13 13 14 14 14 15 16 15 14 14 15 14 13 13 14 14 13 12 13 14 14 15 16 15 15 16 16 15 15 15 16 16 16 17 17 16 17 18 17 19 19 18 17 16 14 15 16 17 18 18 18 19 21 22 24 25 26 28 30 31 31
9 10 10 11 11 11 12 12 12 12 11 10 9 9 9 9 9 9 9 10 11 11 11 11 11 13 14 14 14 15 15 15 14 14 13 12 12 12 12 13 15 15 14 13 14 15 14 14 15 15 15 15 15 15 15 15 17 17 16 17 18 17 18 18 18 18 18 17 16 16 15 15 16 18 19 19 20 21 23 24 25 27 29 31 32 33 33
10 10 11 11 11 12 12 12 12 11 11 9 9 9 9 9 10 10 10 10 11 11 12 12 12 13 14 14 14 15 15 14 13 13 13 12 12 12 12 13 14 15 15 14 15 15 15 15 15 15 15 16 16 16 16 16 16 17 17 17 17 17 17 18 17 17 17 17 16 16 16 17 17 19 21 20 20 22 25 25 26 28 30 31 33 34 35
10 11 11 11 11 12 11 11 11 11 10 10 9 10 10 10 10 11 10 11 12 12 12 13 13 13 14 14 14 14 14 14 13 12 12 13 13 13 13 13 14 14 15 15 15 16 16 15 16 16 16 16 16 16 16 16 16 16 16 16 17 17 17 17 17 16 17 19 19 17 17 17 18 19 21 21 21 24 28 27 27 29 30 32 33 34 35
11 11 11 11 11 11 11 11 11 11 11 11 10 10 11 11 11 11 11 11 13 13 13 13 14 14 14 14 14 13 13 14 13 12 12 13 13 14 14 14 14 15 15 16 17 16 16 16 16 16 17 17 16 16 16 17 17 17 16 16 17 18 18 17 17 16 18 20 20 18 17 18 17 18 21 23 22 24 28 28 28 30 32 33 34 34 36
11 11 11 11 12 12 12 12 11 11 12 12 11 11 12 12 12 12 12 11 13 14 13 13 13 14 14 14 13 13 13 13 13 12 12 13 13 14 15 15 15 15 16 17 17 16 16 16 17 17 18 17 16 16 17 17 18 18 17 17 17 17 18 17 17 17 18 19 20 19 18 19 20 21 24 25 24 27 30 30 29 32 34 34 35 35 37
11 11 12 12 12 12 12 12 12 12 13 13 12 12 13 13 13 13 13 12 13 13 12 12 14 14 14 14 13 13 13 13 13 13 12 13 14 14 15 15 16 16 16 17 17 17 17 17 17 17 17 17 16 16 17 17 17 17 19 19 18 17 17 18 17 18 18 20 21 20 19 20 22 23 25 26 26 29 32 32 32 33 34 34 35 37 40
12 12 12 13 13 13 13 13 13 14 14 13 13 13 14 14 13 13 12 11 11 12 12 12 13 14 14 14 13 13 13 14 13 13 13 14 14 15 16 16 16 16 17 17 17 17 17 17 17 17 16 16 16 16 16 17 17 17 19 20 19 18 18 17 17 19 20 20 21 21 20 21 22 24 26 28 28 31 32 33 32 32 34 35 37 39 42
12 13 13 13 14 14 14 14 14 15 15 14 13 13 13 13 13 12 11 11 10 11 12 13 13 13 13 13 13 13 13 14 14 14 15 15 15 16 17 17 17 17 18 18 17 17 17 17 16 16 16 16 16 16 16 16 17 18 19 20 20 20 19 17 18 20 21 21 21 21 21 22 23 26 29 29 31 34 33 31 30 31 35 38 39 40 43
13 13 14 14 14 15 15 15 15 15 15 14 13 13 13 13 12 11 11 11 11 11 12 13 13 12 13 13 13 14 14 14 14 14 15 16 16 16 17 18 17 17 18 18 18 17 17 17 16 16 16 16 16 16 16 16 17 19 20 20 20 20 20 19 20 21 22 21 21 22 22 22 25 28 30 31 34 34 31 28 30 34 37 39 40 42 44
13 14 14 15 15 15 15 15 15 15 15 14 13 12 13 13 12 11 11 11 11 10 12 13 13 12 12 13 14 14 14 15 15 15 15 16 16 17 18 18 17 17 18 18 18 17 17 17 16 16 16 17 16 16 17 17 18 19 20 19 20 21 21 21 21 22 23 22 23 24 23 22 26 30 32 33 34 31 28 30 34 39 40 40 41 44 45
14 14 15 15 15 16 16 16 16 15 15 14 13 12 13 13 13 12 11 11 11 11 12 13 13 13 13 13 14 14 15 15 15 15 16 16 17 18 18 17 17 18 18 18 18 17 17 17 17 16 16 17 17 16 17 17 17 19 20 19 20 21 22 22 22 23 24 23 24 25 22 23 29 32 32 33 32 30 31 35 38 40 42 42 43 45 45
14 15 15 16 16 16 16 16 16 16 15 15 14 13 13 14 14 13 12 11 11 11 12 13 13 13 14 14 14 15 15 15 16 15 15 16 18 18 17 17 18 19 19 18 18 17 16 17 18 16 16 17 17 16 17 17 18 19 19 19 20 21 21 22 24 24 24 24 24 24 23 26 32 33 32 32 32 32 35 38 39 40 42 43 44 45 45
15 15 16 16 16 16 16 17 16 16 16 15 14 14 14 15 15 14 13 12 11 11 12 13 13 13 14 14 15 15 15 16 16 16 16 17 18 18 17 18 19 19 18 18 18 17 17 17 18 17 17 18 18 17 16 17 18 19 19 19 21 22 21 22 24 24 24 24 24 24 25 29 32 32 31 32 33 34 37 38 39 40 42 43 44 45 46
16 16 16 17 17 17 17 17 17 17 16 16 15 14 14 15 15 15 14 13 12 12 12 12 13 13 14 15 15 15 15 16 16 16 16 17 18 18 18 18 19 19 18 18 18 18 18 18 17 17 17 18 18 18 17 17 19 20 21 20 21 22 22 23 23 24 24 24 25 26 27 29 31 31 31 32 35 37 38 38 40 41 42 43 44 46 47
16 17 17 17 18 18 18 18 17 17 17 16 16 15 15 15 15 15 14 14 13 13 12 12 13 14 14 15 15 15 15 16 16 16 17 17 18 18 18 19 18 18 18 18 17 17 18 18 17 17 17 18 18 18 18 19 19 20 21 21 21 22 24 24 24 25 26 25 25 26 28 31 32 31 31 34 37 38 38 38 40 42 43 44 45 46 48
17 18 18 18 18 19 18 18 18 18 18 17 16 16 16 15 15 15 15 14 13 13 13 14 14 15 15 15 16 16 16 17 17 17 18 18 18 18 18 19 18 18 18 18 18 18 18 18 18 17 17 18 18 18 19 19 19 19 21 22 22 24 26 25 25 26 26 25 25 27 31 34 34 32 33 36 38 38 38 40 42 43 44 45 46 48 49
18 18 19 19 19 20 20 19 19 18 18 18 17 17 17 16 16 16 15 15 14 13 13 15 16 15 15 15 16 16 17 17 17 18 18 18 18 18 18 19 18 18 18 19 19 19 18 18 18 17 17 18 18 19 19 19 20 20 20 21 23 25 26 25 25 26 26 26 27 30 33 34 33 33 35 39 39 39 40 41 43 44 45 46 47 49 50
19 20 20 20 21 21 21 21 20 20 20 19 19 18 17 18 18 17 15 15 15 14 14 15 15 15 16 16 16 17 18 18 18 18 18 19 18 18 18 18 18 18 18 19 19 18 17 18 18 17 18 18 19 19 19 19 20 20 20 21 24 25 25 25 26 27 27 28 30 32 34 33 32 34 38 40 39 40 41 43 44 45 46 47 48 49 50
20 21 21 21 22 22 22 22 22 21 21 21 21 20 19 19 19 18 16 15 16 15 15 14 15 15 16 17 17 18 18 18 18 19 19 19 18 18 18 19 19 19 19 19 19 18 18 18 18 18 18 19 19 18 18 19 19 20 21 23 24 25 25 25 27 27 28 29 31 33 34 34 35 38 41 40 40 41 43 43 44 46 47 48 49 50 51
20 21 21 22 22 22 22 22 22 22 22 22 22 22 21 21 21 20 19 17 17 16 15 14 14 15 16 17 18 19 19 19 19 19 19 19 19 19 19 19 20 19 19 19 18 18 18 18 18 18 18 19 19 19 18 19 20 21 22 24 25 25 25 27 28 28 29 31 33 34 35 35 37 40 41 41 41 42 43 44 45 47 48 49 50 51 51
21 21 21 22 22 22 22 22 22 22 22 22 22 22 23 23 23 22 21 20 18 16 15 15 16 16 16 17 19 19 19 19 20 20 20 20 20 20 20 20 20 19 19 18 18 18 18 18 18 19 19 19 19 19 19 20 21 22 23 24 25 26 27 28 29 29 31 33 34 35 36 37 39 41 41 41 42 43 44 45 47 48 49 50 50 51 51
21 21 21 22 23 23 23 23 23 22 22 22 22 22 23 23 24 24 23 21 19 18 17 16 16 17 17 18 19 20 20 20 21 21 21 21 21 21 21 21 20 20 19 18 18 17 18 19 19 19 20 20 19 19 20 21 21 22 23 25 26 28 28 29 29 31 32 34 35 36 37 38 40 40 40 40 42 43 44 46 48 49 49 50 51 51 51
20 21 21 21 22 23 24 24 24 23 23 23 23 23 22 23 24 24 24 23 21 19 18 17 17 17 17 18 20 21 21 21 22 22 22 22 22 22 22 21 21 20 19 19 18 18 18 19 20 20 21 20 20 20 20 21 21 23 24 26 27 29 29 29 31 32 33 35 36 37 38 38 39 40 40 41 42 44 46 47 48 49 50 50 51 50 49
20 20 20 20 21 22 24 25 25 25 24 24 24 24 23 23 24 25 25 23 22 20 19 18 18 18 18 19 21 22 22 22 23 23 23 22 22 22 22 21 21 21 20 19 19 19 19 19 20 20 21 21 20 21 21 21 22 23 25 26 28 29 29 31 33 33 34 36 37 38 38 38 39 40 41 42 44 46 48 48 48 49 50 50 50 49 48
19 19 20 20 20 21 22 23 24 24 24 25 25 25 25 25 26 26 25 24 23 22 20 19 19 19 19 20 22 24 24 23 23 24 23 23 22 22 22 22 21 21 21 20 19 19 19 19 20 20 21 21 21 21 21 22 22 24 25 27 29 29 30 32 34 34 35 37 38 38 39 40 40 41 42 43 45 47 48 48 49 50 50 50 49 48 47
19 19 19 19 20 21 21 22 22 23 24 25 25 26 27 27 27 27 26 24 23 23 22 21 20 21 22 22 22 25 26 24 24 24 23 23 23 22 22 22 21 21 21 20 19 19 20 20 20 20 21 22 22 21 22 23 23 24 26 28 30 30 32 33 34 35 36 38 39 39 39 40 41 41 42 44 46 48 48 48 49 50 49 49 48 48 46
18 19 19 19 20 20 21 21 22 22 23 24 24 25 27 28 29 29 28 26 24 23 23 23 22 22 24 24 24 25 27 26 25 25 24 23 23 22 21 21 21 20 20 20 19 19 20 20 20 20 21 22 22 22 23 23 24 26 28 30 31 32 34 35 35 36 38 39 39 39 39 40 41 42 43 45 47 48 48 49 49 49 49 48 48 47 46
18 19 19 19 20 20 21 21 22 22 22 23 24 25 26 27 28 29 29 28 27 24 23 23 24 24 24 24 25 26 27 26 25 25 25 24 23 23 22 21 20 20 20 20 19 20 20 20 20 21 21 21 22 23 23 24 25 27 29 31 32 33 35 36 37 38 39 40 40 39 39 40 41 42 44 46 48 48 48 49 49 49 48 48 47 47 46
18 19 19 19 20 21 21 21 22 22 22 23 24 25 26 26 26 27 28 29 28 27 25 24 25 26 25 25 26 27 28 26 26 26 25 24 23 22 22 21 20 20 20 20 20 20 21 21 20 20 21 22 22 23 24 24 26 28 31 32 33 34 35 37 38 39 40 40 40 39 40 41 42 43 45 47 48 48 48 49 49 48 48 48 47 46 45
19 19 19 20 20 21 21 21 22 22 22 23 24 25 26 26 27 27 28 28 27 28 27 26 26 27 27 26 26 28 28 27 26 25 24 23 23 22 21 20 19 19 20 20 20 20 21 21 21 21 22 23 23 24 25 26 28 30 32 33 34 35 36 37 39 40 40 40 40 41 41 42 43 45 46 47 48 48 48 48 48 48 48 47 47 45 45
19 20 20 20 21 21 20 21 21 22 22 24 24 24 25 27 27 27 28 28 27 28 28 28 27 28 29 28 27 28 28 27 26 25 24 23 22 22 21 20 20 20 20 20 21 21 21 22 22 22 23 24 24 25 26 28 30 32 33 34 34 36 37 38 39 40 40 40 41 41 42 43 45 46 47 47 48 48 48 48 47 47 47 47 46 45 44
20 20 20 20 20 21 21 21 22 22 23 24 24 25 26 27 28 27 28 28 28 28 29 29 28 29 29 28 28 28 28 26 25 23 23 22 22 21 20 20 20 20 20 20 21 21 21 22 22 24 25 25 25 26 28 29 32 34 34 34 35 37 37 38 40 41 40 40 40 41 42 44 46 47 47 47 48 48 47 47 47 47 46 46 45 44 44
20 20 20 20 20 21 21 22 22 23 23 24 25 25 26 27 28 28 28 28 28 28 29 30 30 30 30 29 28 27 27 26 24 22 21 22 22 21 20 20 20 20 20 20 21 22 22 23 24 25 26 26 26 27 29 31 33 35 35 35 36 37 38 39 41 41 40 40 41 42 43 45 47 47 47 47 47 47 46 46 46 46 46 45 44 43 44
20 20 20 20 20 21 21 22 23 23 23 24 25 26 26 27 28 29 28 28 28 29 30 30 30 30 30 29 28 26 26 25 24 22 21 22 22 21 20 20 20 20 20 21 22 23 23 24 25 26 26 26 27 28 30 33 35 35 35 36 37 38 39 41 41 41 40 40 41 43 44 46 47 47 46 46 46 46 46 46 45 45 45 44 43 44 44
20 20 20 20 21 22 22 22 24 24 24 25 26 26 27 28 28 28 28 28 28 29 30 30 31 30 29 28 27 26 24 24 23 22 21 21 21 21 20 20 20 20 20 21 22 23 23 24 25 26 27 27 28 30 32 34 36 36 35 36 37 38 40 41 41 40 40 41 42 44 45 46 47 46 46 45 45 45 45 45 45 44 44 43 43 44 45
21 21 21 20 21 22 22 22 24 25 25 25 26 26 27 28 28 28 28 28 29 29 30 30 30 30 28 28 27 25 24 23 22 22 21 21 21 21 20 20 20 20 21 22 23 23 24 25 26 27 27 28 29 32 34 36 36 36 36 37 38 39 41 42 41 40 41 42 43 44 46 46 46 46 45 45 45 45 45 44 44 43 43 43 44 45 45
21 22 21 21 22 23 23 22 24 25 25 25 25 25 26 27 27 27 27 28 29 29 30 30 30 29 27 26 26 24 23 23 22 21 21 21 21 21 20 20 20 21 22 23 24 24 25 26 27 27 28 29 31 33 35 37 36 36 37 38 39 40 41 41 41 41 41 42 44 45 46 46 45 45 45 44 44 44 43 43 43 43 43 43 44 45 46
21 21 21 20 22 23 23 23 24 25 24 25 25 25 25 26 26 27 28 28 29 29 30 29 28 27 27 26 24 23 22 22 22 21 21 21 21 21 20 21 21 22 23 24 25 25 26 27 27 28 29 31 33 35 36 37 37 37 37 38 39 40 41 41 41 41 42 43 44 45 46 45 45 44 44 43 43 42 42 43 43 43 43 43 44 46 47
21 22 21 21 21 23 23 23 24 24 24 25 25 25 26 26 27 27 28 28 28 29 29 28 27 26 25 24 23 22 22 22 21 21 21 21 21 21 21 21 22 22 23 24 25 26 27 28 28 29 31 33 34 36 37 37 37 37 38 39 40 41 41 41 41 41 42 43 45 46 45 45 44 43 43 43 42 42 42 42 42 42 43 44 45 46 47
21 22 22 21 21 22 23 23 23 24 25 25 26 26 26 27 27 27 28 28 28 28 28 27 26 25 24 23 22 22 21 21 21 21 21 21 21 22 22 22 23 23 23 24 25 26 27 28 29 31 32 34 35 37 38 38 37 37 38 39 40 41 41 42 42 42 42 44 45 45 45 44 43 42 42 42 42 41 41 42 42 42 43 44 45 46 47
21 22 22 21 21 22 23 23 23 24 25 26 27 27 27 27 27 27 28 28 28 27 27 26 25 24 23 23 22 21 21 21 20 21 21 22 22 21 22 23 24 25 25 25 26 27 28 29 31 32 34 35 36 38 38 38 38 38 39 40 40 40 41 42 42 42 43 44 45 45 45 44 43 42 41 41 41 41 41 41 42 42 43 44 45 47 48
22 22 22 22 22 22 23 23 24 25 26 27 27 27 27 26 27 27 27 27 27 27 26 25 24 24 23 23 22 21 20 20 20 21 21 22 22 22 22 23 24 25 25 26 27 28 29 30 32 33 35 36 37 38 39 38 38 39 40 40 40 40 41 42 42 42 43 44 45 45 44 43 42 42 41 41 40 41 41 41 42 42 43 44 45 47 48
22 22 22 23 22 22 22 23 24 24 25 26 26 27 26 26 26 27 27 26 26 26 25 24 24 24 23 23 22 21 20 21 21 21 22 22 22 22 23 24 24 25 26 27 28 29 30 31 32 34 35 37 38 39 39 38 39 39 40 40 40 41 41 42 42 42 44 45 45 44 44 43 42 41 41 40 40 41 41 41 42 43 43 44 45 46 48
22 22 23 23 23 23 23 24 24 25 26 26 27 27 26 26 26 26 26 25 25 25 24 24 23 23 22 22 21 21 21 21 21 22 22 22 22 22 23 24 25 26 26 27 28 29 30 31 33 34 36 37 38 39 39 39 39 40 40 40 41 42 42 41 42 43 44 45 45 44 43 42 42 41 41 40 40 40 41 41 42 43 43 44 45 46 47
Wind_Direction
327 327 329 330 330 331 331 333 334 335 337 335 333 334 335 335 327 324 334 337 337 343 338 330 334 333 326 325 327 327 327 326 325 325 327 325 323 324 322 319 318 315 314 315 314 313 312 310 310 309 308 308 306 308 312 311 310 310 310 310 312 311 309 309 308 309 312 311 309 308 309 313 315 314 314 313 310 309 304 300 301 303 303 302 302 299 294
329 329 330 331 332 332 333 334 334 336 340 339 337 338 334 329 325 327 336 339 340 340 330 327 328 326 326 328 328 327 327 327 326 325 325 324 323 323 319 318 318 314 313 313 311 310 312 311 310 310 310 310 310 311 314 313 313 313 311 311 314 312 310 312 314 316 318 317 314 310 310 315 315 313 314 313 312 312 309 306 306 305 304 306 304 299 296
331 332 332 333 333 333 333 334 335 337 341 341 340 337 332 330 329 327 334 342 346 338 325 326 327 326 330 330 327 327 327 326 325 324 323 322 321 320 318 317 316 314 315 314 312 312 312 311 313 314 313 312 313 314 316 315 315 315 313 313 315 313 311 314 315 313 312 311 309 308 309 313 314 313 314 314 314 315 311 309 309 305 305 308 305 300 301
333 333 334 334 334 335 335 336 337 339 340 341 340 335 333 333 329 326 329 339 346 340 332 333 331 327 330 330 328 329 327 324 324 324 323 321 321 320 318 318 318 317 319 318 315 315 316 315 318 320 317 316 316 318 320 319 317 317 317 316 317 316 315 315 312 305 304 304 304 308 311 313 313 313 314 314 315 316 315 313 311 307 308 308 304 304 307
333 334 335 334 335 337 338 339 339 338 339 339 338 337 337 333 327 325 327 330 335 337 336 338 334 327 328 329 326 327 326 324 325 324 322 322 322 321 320 321 321 320 322 323 320 320 323 323 324 323 320 319 320 321 323 322 319 319 319 318 319 320 317 316 313 308 305 305 306 310 313 313 312 314 316 316 318 319 320 318 314 312 312 309 307 311 311
334 334 335 336 338 339 340 340 339 338 337 337 338 338 337 333 325 324 327 325 325 329 331 334 334 331 329 327 326 328 329 327 325 323 322 323 324 325 326 328 329 326 327 330 328 328 330 329 326 325 323 322 323 324 323 322 321 322 321 320 321 321 315 313 315 313 309 308 308 310 314 315 316 318 318 319 321 322 321 316 315 316 313 307 309 313 312
336 337 339 340 341 340 340 339 338 338 338 338 340 339 334 333 328 325 328 326 321 322 325 329 333 332 329 328 327 328 328 326 323 323 326 327 327 330 332 331 333 332 333 336 332 330 332 329 325 325 325 323 324 325 323 321 322 323 323 321 321 320 316 313 314 315 313 312 314 316 316 317 319 321 320 320 320 321 319 314 314 316 312 309 312 314 312
341 342 342 342 341 340 339 339 338 339 339 338 341 339 333 333 329 326 330 328 323 323 325 328 332 330 329 328 326 327 327 324 323 325 329 329 329 335 335 330 330 330 332 337 332 327 328 325 321 324 326 325 325 325 322 321 323 325 323 320 320 320 317 316 319 319 316 317 323 325 321 320 323 323 322 321 321 320 318 315 315 316 314 314 317 315 313
346 345 344 342 342 341 341 341 340 340 340 340 340 338 335 333 327 326 330 327 325 325 325 328 332 329 328 327 324 325 326 323 324 326 329 330 330 333 333 329 330 332 334 336 329 325 327 325 322 324 325 324 324 323 322 322 322 323 322 321 322 322 319 320 324 323 317 318 324 324 321 323 325 325 323 323 324 321 316 316 318 318 316 317 319 317 314
348 347 346 345 345 344 343 344 343 342 342 342 341 337 335 334 330 329 331 327 325 327 327 330 331 326 323 324 323 324 324 324 329 330 329 332 333 331 330 330 331 333 333 332 328 326 327 325 324 325 325 323 323 322 323 324 322 321 322 322 323 324 323 321 323 321 317 318 321 319 317 318 319 320 320 318 321 321 316 316 320 319 319 319 318 316 315
352 351 351 350 350 349 349 348 347 346 345 344 342 337 335 335 332 331 335 331 327 328 329 330 329 325 323 325 325 327 328 330 333 332 329 330 331 330 331 332 332 331 329 329 330 329 327 326 326 327 327 327 327 326 327 328 327 324 324 324 324 327 326 321 321 320 316 318 322 321 317 315 313 316 318 316 318 322 320 318 320 321 321 319 317 315 316
358 357 357 356 356 355 354 353 350 348 346 343 341 338 335 333 332 331 334 330 326 328 330 327 325 324 325 327 327 326 329 330 331 331 328 327 328 330 332 333 332 330 329 330 331 330 329 329 330 330 330 330 330 331 332 331 330 328 327 327 326 328 327 322 321 321 316 319 327 325 318 314 311 313 320 318 315 319 321 318 319 322 322 320 318 317 318
5 4 4 2 1 359 357 355 351 349 346 342 340 338 334 331 330 329 330 328 326 327 329 326 326 328 328 330 330 327 328 331 331 331 330 327 326 329 331 332 330 328 328 330 331 331 330 330 330 329 329 329 329 330 331 330 329 329 329 329 328 328 327 324 323 322 320 323 327 322 315 316 313 313 320 320 316 319 322 319 319 323 322 321 319 319 320
10 8 7 4 2 359 356 354 350 347 344 340 337 335 332 330 329 327 327 329 327 327 329 328 330 332 330 330 331 330 330 332 331 329 329 328 326 326 328 329 328 327 328 329 330 330 328 327 328 327 327 328 327 326 326 326 326 327 327 327 328 328 327 326 325 325 324 323 322 319 315 317 319 318 320 321 320 322 321 319 319 323 323 321 321 321 322
10 7 5 2 359 357 353 351 348 344 342 339 335 334 331 330 330 328 329 331 329 331 334 332 328 330 330 329 333 334 332 331 330 327 326 326 326 325 327 328 328 328 329 329 329 328 327 327 328 328 328 328 326 323 324 325 324 325 327 329 332 331 328 327 325 325 327 325 323 322 318 315 319 320 319 320 321 320 318 317 318 322 325 325 324 323 324
7 4 2 359 356 354 351 349 347 345 343 340 337 336 335 334 334 333 334 335 332 331 333 331 327 327 328 327 331 335 332 329 329 328 327 326 326 325 327 328 328 328 329 330 329 329 330 328 327 327 325 323 324 323 323 325 324 324 328 332 335 334 330 329 328 327 328 327 324 322 317 315 319 320 319 321 320 318 318 318 318 322 326 327 326 325 325
5 2 359 358 356 354 352 351 350 349 348 345 343 342 342 341 341 338 337 338 338 334 333 332 328 328 330 329 330 332 331 328 329 328 326 325 325 326 328 329 329 328 329 330 330 330 331 329 328 328 324 322 325 326 324 325 325 325 327 330 333 332 329 331 331 328 328 328 325 322 318 319 322 321 320 321 320 321 323 321 319 324 327 327 327 326 325
4 2 0 360 359 357 357 356 355 355 354 352 352 351 349 347 345 342 340 341 341 338 336 336 334 333 334 332 328 329 330 329 329 327 325 325 326 327 328 328 329 329 329 330 331 331 331 329 328 329 325 322 326 327 324 325 325 324 325 327 329 329 328 329 331 330 328 328 326 323 320 321 324 323 323 324 323 324 326 321 320 325 327 327 327 326 325
7 6 4 3 2 2 2 1 0 0 359 358 357 355 354 352 348 346 345 344 343 340 338 338 339 338 335 332 330 330 331 331 329 328 328 328 328 327 327 328 330 330 329 330 330 330 330 328 326 328 326 324 327 328 327 327 325 324 326 328 329 329 328 328 330 330 328 327 326 324 321 324 328 326 325 328 328 325 324 323 323 326 326 326 327 326 325
11 10 8 7 6 5 5 4 4 3 2 2 2 359 357 355 352 349 347 345 346 347 343 341 343 342 340 339 338 335 333 332 331 331 329 326 327 331 332 329 329 330 331 331 330 328 329 327 326 327 327 325 327 328 327 328 327 326 328 329 329 329 328 328 329 329 328 328 329 327 322 325 330 328 326 330 331 325 324 325 325 326 326 326 326 326 325
15 13 11 10 9 8 7 6 5 5 4 4 3 2 0 358 357 356 353 348 347 347 344 343 344 345 344 343 343 340 338 336 334 333 331 327 329 334 332 328 329 331 330 330 329 328 328 327 325 327 326 325 328 328 326 326 327 327 330 330 329 330 330 328 328 330 330 329 329 328 324 326 330 330 328 330 330 327 327 327 326 326 326 326 325 325 326
18 16 15 14 12 11 10 8 8 7 6 5 4 4 2 0 0 1 360 358 357 354 350 349 349 349 348 347 345 343 342 340 338 336 335 332 332 334 333 331 333 332 330 331 330 328 328 327 327 328 327 326 328 328 328 328 327 326 331 332 330 330 330 328 328 330 329 326 326 328 328 328 330 330 330 331 330 330 329 328 327 327 326 326 326 326 326
22 20 19 17 16 14 13 12 11 11 10 8 7 6 5 3 2 2 1 2 3 2 358 353 351 350 350 349 348 346 345 343 340 338 337 335 333 335 335 334 334 332 331 333 331 328 328 328 328 329 328 327 329 330 331 331 328 327 330 331 330 332 334 332 330 330 330 328 328 330 331 330 331 330 331 331 331 330 329 328 328 327 327 327 328 327 327
25 23 22 20 19 17 16 15 14 13 12 11 10 8 7 5 3 2 0 359 359 358 357 354 351 350 349 348 348 347 345 344 341 339 338 336 335 335 336 335 334 334 333 333 331 329 329 329 329 331 329 328 330 331 330 330 329 329 331 331 330 334 336 335 332 332 332 330 332 335 333 331 330 330 331 332 331 330 329 329 329 328 329 329 328 328 327
30 27 26 24 22 21 20 18 17 16 14 13 11 9 8 6 2 1 360 358 356 356 356 353 352 351 350 348 348 347 345 344 342 340 339 339 338 337 337 336 336 335 333 333 333 334 334 332 333 333 331 329 330 330 329 330 330 330 332 332 330 332 334 335 333 332 331 329 331 334 333 328 328 331 332 332 331 330 330 330 330 330 330 329 329 328 328
34 32 29 28 26 25 24 23 21 20 18 16 14 12 10 7 4 2 1 360 359 359 358 354 352 353 353 352 350 348 347 346 344 343 343 342 341 340 339 338 338 336 335 335 337 338 337 336 335 333 331 331 333 332 332 332 333 333 334 333 331 331 333 333 332 331 330 329 331 334 332 329 330 332 332 331 331 330 330 331 331 331 330 329 329 329 329
36 33 31 29 28 27 26 25 25 23 22 21 20 18 14 11 8 6 4 2 359 358 357 354 352 353 356 355 353 351 349 348 347 346 346 346 344 343 341 339 338 337 336 336 337 338 339 337 336 334 333 334 335 335 334 335 336 336 335 334 334 334 334 334 333 333 333 332 334 335 333 330 330 331 331 331 331 331 331 332 332 331 331 330 330 329 329
34 32 30 29 28 27 26 25 25 24 24 24 24 23 20 16 14 12 8 5 2 1 2 1 357 355 356 356 355 354 352 351 350 348 347 346 345 343 341 339 338 338 338 338 338 338 338 337 335 334 333 335 336 336 336 337 338 337 334 335 337 336 334 334 335 333 332 333 334 334 332 330 329 330 331 332 332 332 333 333 332 332 331 331 330 330 329
33 31 30 28 27 26 25 24 23 23 23 22 22 22 21 19 18 16 13 10 9 10 10 9 4 360 357 356 356 355 354 352 350 349 348 346 345 343 341 341 341 341 341 342 341 341 339 338 337 335 335 335 336 336 336 337 337 336 335 336 338 337 334 334 335 333 332 333 334 334 332 330 330 331 331 332 333 333 333 332 332 332 332 332 331 330 330
31 30 29 28 28 27 25 24 23 21 20 20 20 20 19 18 17 16 14 12 10 9 9 7 4 1 359 358 356 354 353 352 350 349 348 347 346 344 343 343 343 342 343 343 343 341 340 339 339 338 336 337 338 338 337 338 337 336 336 338 338 337 336 335 335 334 333 333 333 332 331 330 331 331 332 333 334 334 333 333 333 333 332 332 331 331 331
29 28 28 28 28 27 26 26 24 23 21 21 20 19 17 15 13 12 11 10 8 8 8 7 4 360 358 358 356 354 352 350 349 348 347 347 346 345 344 345 345 344 345 345 343 341 340 339 339 339 339 341 342 340 339 340 338 336 337 339 338 337 336 335 335 334 334 333 333 332 331 331 332 333 333 333 334 334 333 333 333 333 332 332 332 332 331
27 26 26 27 27 26 26 26 26 25 24 23 23 21 17 14 12 10 9 9 8 7 7 6 3 359 356 355 354 353 351 349 347 347 346 345 345 344 344 345 345 345 345 345 343 341 340 340 341 342 341 342 343 341 341 341 339 337 338 339 338 336 336 336 335 335 335 334 334 333 333 333 334 334 333 334 334 334 334 334 333 333 333 333 333 333 332
24 24 25 25 24 23 23 23 24 25 25 24 24 21 18 15 12 9 8 9 8 7 5 4 2 359 355 353 352 352 351 348 346 346 345 343 343 343 343 344 345 345 345 344 342 340 340 341 343 344 342 342 343 343 342 341 339 338 339 339 337 337 336 336 336 336 336 335 335 334 333 333 334 334 334 334 335 335 334 334 334 334 334 334 334 334 333
23 22 23 22 21 20 19 19 20 21 20 20 20 18 16 15 12 10 9 8 8 7 6 4 1 357 354 352 351 351 351 349 347 346 345 343 344 344 343 343 344 345 345 345 344 343 342 342 343 343 342 342 344 344 341 339 339 340 339 338 338 337 337 336 336 336 336 335 335 334 333 333 334 334 334 335 335 335 335 335 335 335 335 335 335 335 334
21 20 19 18 17 16 16 15 15 15 15 15 15 14 13 14 13 12 11 9 7 6 4 3 1 357 354 352 350 349 349 349 347 346 345 344 345 345 345 345 345 344 343 344 345 345 344 343 344 342 342 343 344 342 340 339 340 340 339 338 338 338 337 336 337 336 336 336 335 335 335 335 335 335 335 335 336 335 335 336 336 335 336 336 336 336 336
19 18 17 16 15 14 13 12 11 10 11 11 10 9 9 9 10 11 12 12 11 8 3 1 360 357 354 352 349 348 349 349 347 346 346 346 346 346 347 348 347 345 345 346 347 346 344 343 344 344 344 344 342 341 340 340 340 340 339 338 338 338 337 337 337 336 336 336 336 336 336 336 336 336 336 336 336 336 336 336 336 336 337 337 337 337 337
17 16 15 13 12 11 10 9 8 8 8 7 6 5 5 5 6 6 8 9 10 8 6 2 359 355 354 351 349 349 349 348 347 347 348 347 347 347 349 350 348 346 348 349 347 346 345 346 347 347 345 343 342 341 342 342 341 339 339 338 338 338 338 337 337 337 337 337 337 337 337 337 337 336 336 336 336 337 337 337 337 337 337 337 338 338 338
15 13 11 10 9 8 7 6 6 6 5 3 3 3 3 3 4 3 3 4 4 4 4 3 359 356 355 353 351 350 350 348 348 350 349 349 349 349 350 351 351 350 350 348 346 347 349 349 350 349 345 343 343 343 342 341 341 340 339 339 339 339 338 338 338 338 338 337 337 338 338 337 337 337 337 337 337 337 338 338 338 338 338 338 338 338 338
11 9 8 8 8 6 5 4 4 4 3 2 2 2 2 2 2 1 360 0 1 -0 1 1 358 357 356 354 352 351 352 351 350 351 351 351 352 352 352 353 353 353 353 350 349 351 351 349 349 349 345 342 342 342 341 341 341 340 340 340 340 339 339 339 339 339 338 338 338 339 338 338 337 337 337 338 338 338 338 338 338 339 339 339 339 339 339
7 6 6 6 5 4 4 3 2 2 2 1 1 1 1 1 1 359 358 359 359 358 358 358 357 356 356 355 352 351 353 353 352 352 352 353 354 355 355 354 354 355 355 352 352 353 352 350 349 348 344 342 342 342 341 341 341 340 341 341 340 340 340 339 339 339 338 339 339 339 339 338 338 338 338 338 338 338 339 339 339 339 339 339 340 340 341
4 4 4 4 3 3 3 3 2 1 1 1 0 0 360 359 359 359 359 359 358 356 356 357 356 355 355 355 353 351 353 354 354 355 356 355 355 357 357 355 356 358 356 353 352 354 354 351 348 345 343 343 343 342 341 341 341 341 341 341 340 340 340 340 339 339 340 340 340 339 339 339 339 339 339 339 339 339 339 339 340 340 340 341 341 341 342
4 4 4 4 3 2 1 2 1 0 360 359 359 358 358 357 357 358 358 358 356 355 355 356 355 353 352 353 354 353 353 355 357 358 358 357 356 358 358 358 359 0 356 353 354 355 354 351 347 344 344 345 344 342 342 341 341 341 341 341 340 340 340 340 340 340 341 341 340 340 339 339 339 339 339 340 340 340 340 340 340 341 341 342 342 342 342
3 2 2 1 1 0 360 0 0 360 359 358 358 357 356 356 357 356 356 356 356 355 354 354 354 353 353 354 355 355 355 357 358 359 359 358 358 360 1 1 1 359 357 356 357 356 353 350 347 345 345 345 344 342 342 341 341 341 342 341 341 341 341 341 341 341 341 341 341 340 340 340 339 340 340 341 341 340 341 341 342 342 342 343 343 343 343
360 359 359 358 358 359 358 358 358 359 358 357 356 356 356 355 355 355 354 354 354 354 354 354 354 354 354 355 356 357 358 359 0 1 0 0 1 3 3 1 359 358 357 357 357 354 351 349 347 347 347 346 344 343 342 341 341 342 342 341 341 341 341 341 341 341 341 341 341 341 341 341 340 340 341 341 342 342 342 342 343 343 343 344 344 343 344
357 357 358 358 357 357 358 357 357 358 357 355 354 355 354 353 352 352 352 353 353 353 353 353 354 354 354 355 358 360 360 1 2 2 2 2 3 3 1 359 359 359 358 356 355 353 350 348 347 347 347 345 343 343 342 342 342 342 342 341 341 341 341 341 342 342 342 342 342 342 341 341 341 341 341 342 343 343 343 343 344 344 344 344 344 344 345
357 357 358 358 356 356 357 357 355 355 355 353 353 353 352 351 350 351 352 352 353 353 352 353 355 355 355 357 360 1 1 3 3 3 3 5 4 1 359 359 359 359 358 355 352 350 347 346 346 347 345 344 343 343 342 342 343 343 342 342 341 341 341 342 342 342 342 342 342 342 342 342 342 342 342 343 343 344 344 344 345 345 345 345 345 345 345
356 356 358 358 355 355 356 356 354 354 354 353 352 351 350 350 350 351 352 352 352 352 352 354 356 356 357 359 1 1 2 4 5 3 4 5 3 360 360 0 358 356 354 352 349 346 345 346 346 346 345 344 343 343 342 343 343 343 343 342 342 342 342 342 342 343 343 343 343 343 343 342 343 343 343 343 344 344 345 345 346 346 346 346 346 346 346
355 355 356 356 354 353 354 354 354 354 354 353 352 351 350 351 351 351 351 352 353 353 354 356 357 358 359 1 2 1 2 4 4 3 3 4 2 360 359 358 354 352 351 349 346 345 345 346 346 345 344 344 343 343 343 343 344 344 343 343 342 342 343 343 343 343 344 344 343 343 343 343 343 344 344 344 344 345 346 346 346 347 347 347 347 347 347
357 356 355 355 354 352 352 353 354 353 352 352 352 351 351 351 351 350 350 352 353 354 355 356 358 359 359 1 2 2 2 3 3 2 2 2 0 358 357 355 351 349 347 345 345 344 345 345 345 344 343 343 343 343 343 344 344 344 343 343 343 343 343 343 343 343 344 344 344 344 344 344 344 344 345 345 345 345 346 347 347 347 348 348 348 348 348
357 356 354 354 353 351 351 352 353 351 350 350 351 350 350 351 350 350 351 353 354 355 356 357 359 359 360 1 3 2 1 0 1 1 360 359 357 356 354 351 348 346 344 344 343 343 343 343 344 344 343 343 343 343 343 344 344 344 343 343 343 344 344 343 343 344 344 345 345 345 344 345 345 345 345 345 345 346 347 347 348 348 348 348 348 349 349
353 353 352 351 351 350 350 350 350 349 348 349 349 349 350 351 350 350 351 353 354 356 357 357 358 360 1 1 1 360 358 359 0 360 357 355 355 355 352 347 344 344 344 343 343 342 342 342 343 343 343 343 343 343 344 344 344 344 344 344 344 344 344 344 344 344 345 345 345 345 345 345 345 345 346 346 346 347 347 348 349 349 349 349 349 349 349
350 351 349 349 349 349 349 349 349 348 348 349 349 350 350 350 350 350 352 354 355 355 355 356 359 0 360 358 358 358 358 358 358 357 354 353 352 351 348 345 344 344 343 342 342 342 342 342 342 343 343 343 343 343 344 344 344 344 344 344 344 343 344 344 344 344 345 346 346 346 346 346 346 346 346 346 347 347 348 348 348 349 349 349 349 350 350